Weather in Vyshcha Dubechnia

Ukraine / Kyiv Region     50°44′06″N   30°38′43″E
temp.,
°C
wind,
m/s
gust,
m/s
humid.,
%
clouds,
%
prec.,
mm/h
press.,
hPa
HPBL,
m
27 september, mon
mon2700:00+12nnw356390 0.0 1021104
03:00+8nne48831 0.0 1022173
06:00+6n379611 0.0 1023178
09:00+8nne468322 0.0 1023380
12:00+11nne456620 0.0 1024864
15:00+13nne455927 0.0 10231084
18:00+12nne576092 0.0 1023601
21:00+11ne376750 0.0 1024252
28 september, tue
tue2800:00+10nne367516 0.0 1024150
03:00+6ne35895 0.0 102575
06:00+5ne349611 0.0 102568
09:00+8ne45835 0.0 1026279
12:00+13ne446051 0.0 10261185
15:00+14nne445190 0.2 10261623
18:00+12ene5769100 0.1 1027484
21:00+10ene4880100 0.1 1029345
29 september, wed
wed2900:00+9ene4882100 0.1 1030370
03:00+8ene4784100 0.1 1031298
06:00+6ene479115 0.0 1032183
09:00+8e58818 0.0 1033442
12:00+12e565782 0.0 10331366
15:00+12e455296 0.1 10321453
18:00+11e455485 0.0 1032523
21:00+7ene356911 0.0 103375
30 september, thu
thu3000:00+6e34747 0.0 103449
03:00+5e337714 0.0 103442
06:00+4e34745 0.0 103455
09:00+7ese45595 0.0 1034219
12:00+13se45415 0.0 10341002
15:00+14se34355 0.0 10331368
18:00+11ese34460 0.0 103260
21:00+8ese45550 0.0 103367
1 october, fri
fri100:00+6se46610 0.0 103490
03:00+5se35653 0.0 103464
06:00+5se34685 0.0 103556
09:00+8se35565 0.0 1035189
12:00+14sse45405 0.0 1035921
15:00+16sse44355 0.0 10331440
18:00+12se344787 0.0 103365
21:00+9se465464 0.0 103386